contact:dominique.lefevre@mio.osupytheas.fr, maurice.libes@osupytheas.fr, didier.mallarino@osupytheas.fr
Project:EMSO http://www.emso-fr.org/EMSO-France
Depth: 2436.0 m
Title:EMSO Ligure Ouest : Data MII capteur MICROCAT
DateTime_Computer,Latitude,Longitude,Temperature,Conductivity,Pressure,DateTime_Instrument
DateTime_Computer,Latitude,Longitude,degC,S m-1,dbar,DateTime_Instrument
2021-01-19T00:01:16Z,42.805,6.029,13.2986,4.59986,2470.287,2021-1-19T02:02:17Z
2021-01-19T00:04:19Z,42.805,6.029,13.2981,4.59990,2470.24,2021-1-19T02:05:20Z
2021-01-19T00:07:22Z,42.805,6.029,13.2982,4.59986,2470.25,2021-1-19T02:08:23Z
2021-01-19T00:10:25Z,42.805,6.029,13.2979,4.59986,2470.227,2021-1-19T02:11:27Z
2021-01-19T00:13:28Z,42.805,6.029,13.2983,4.59984,2470.25,2021-1-19T02:14:30Z
2021-01-19T00:16:31Z,42.805,6.029,13.2981,4.59986,2470.264,2021-1-19T02:17:33Z
2021-01-19T00:19:34Z,42.805,6.029,13.2982,4.59988,2470.24,2021-1-19T02:20:36Z
2021-01-19T00:22:37Z,42.805,6.029,13.2982,4.59987,2470.203,2021-1-19T02:23:39Z
2021-01-19T00:25:41Z,42.805,6.029,13.2985,4.59987,2470.227,2021-1-19T02:26:42Z
2021-01-19T00:28:44Z,42.805,6.029,13.2985,4.59987,2470.203,2021-1-19T02:29:45Z
2021-01-19T00:31:47Z,42.805,6.029,13.2986,4.59988,2470.227,2021-1-19T02:32:48Z
2021-01-19T00:34:50Z,42.805,6.029,13.2980,4.59988,2470.203,2021-1-19T02:35:52Z
2021-01-19T00:37:53Z,42.805,6.029,13.2984,4.59986,2470.287,2021-1-19T02:38:55Z
2021-01-19T00:40:56Z,42.805,6.029,13.2980,4.59991,2470.217,2021-1-19T02:41:58Z
2021-01-19T00:43:59Z,42.805,6.029,13.2982,4.59986,2470.24,2021-1-19T02:45:01Z
2021-01-19T00:47:02Z,42.805,6.029,13.2984,4.59986,2470.24,2021-1-19T02:48:04Z
2021-01-19T00:50:06Z,42.805,6.029,13.2981,4.59985,2470.24,2021-1-19T02:51:07Z
2021-01-19T00:53:09Z,42.805,6.029,13.2987,4.59986,2470.227,2021-1-19T02:54:10Z
2021-01-19T00:56:12Z,42.805,6.029,13.2982,4.59989,2470.189,2021-1-19T02:57:13Z
2021-01-19T00:59:15Z,42.805,6.029,13.2983,4.59986,2470.227,2021-1-19T03:00:17Z
2021-01-19T01:02:18Z,42.805,6.029,13.2979,4.59987,2470.203,2021-1-19T03:03:20Z
2021-01-19T01:05:21Z,42.805,6.029,13.2983,4.59986,2470.203,2021-1-19T03:06:23Z
2021-01-19T01:08:24Z,42.805,6.029,13.2982,4.59985,2470.203,2021-1-19T03:09:26Z
2021-01-19T01:11:27Z,42.805,6.029,13.2983,4.59991,2470.203,2021-1-19T03:12:29Z
2021-01-19T01:14:30Z,42.805,6.029,13.2980,4.59986,2470.25,2021-1-19T03:15:32Z
2021-01-19T01:17:34Z,42.805,6.029,13.2982,4.59988,2470.18,2021-1-19T03:18:35Z
2021-01-19T01:20:37Z,42.805,6.029,13.2989,4.59987,2470.24,2021-1-19T03:21:38Z
2021-01-19T01:23:40Z,42.805,6.029,13.2983,4.59984,2470.217,2021-1-19T03:24:42Z
2021-01-19T01:26:43Z,42.805,6.029,13.2980,4.59985,2470.194,2021-1-19T03:27:45Z
2021-01-19T01:29:46Z,42.805,6.029,13.2986,4.59986,2470.194,2021-1-19T03:30:48Z
2021-01-19T01:32:49Z,42.805,6.029,13.2979,4.59986,2470.203,2021-1-19T03:33:51Z
2021-01-19T01:35:52Z,42.805,6.029,13.2983,4.59991,2470.24,2021-1-19T03:36:54Z
2021-01-19T01:38:55Z,42.805,6.029,13.2983,4.59991,2470.194,2021-1-19T03:39:57Z
2021-01-19T01:41:59Z,42.805,6.029,13.2979,4.59988,2470.217,2021-1-19T03:43:00Z
2021-01-19T01:45:02Z,42.805,6.029,13.2985,4.59988,2470.194,2021-1-19T03:46:03Z
2021-01-19T01:48:05Z,42.805,6.029,13.2983,4.59991,2470.24,2021-1-19T03:49:07Z
2021-01-19T01:51:08Z,42.805,6.029,13.2982,4.59989,2470.217,2021-1-19T03:52:10Z
2021-01-19T01:54:11Z,42.805,6.029,13.2980,4.59989,2470.217,2021-1-19T03:55:13Z
2021-01-19T01:57:14Z,42.805,6.029,13.2983,4.59985,2470.203,2021-1-19T03:58:16Z
2021-01-19T02:00:17Z,42.805,6.029,13.2984,4.59987,2470.217,2021-1-19T04:01:19Z
2021-01-19T02:03:20Z,42.805,6.029,13.2982,4.59988,2470.18,2021-1-19T04:04:22Z
2021-01-19T02:06:24Z,42.805,6.029,13.2983,4.59985,2470.227,2021-1-19T04:07:25Z
2021-01-19T02:09:27Z,42.805,6.029,13.2985,4.59984,2470.156,2021-1-19T04:10:28Z
2021-01-19T02:12:30Z,42.805,6.029,13.2983,4.59985,2470.156,2021-1-19T04:13:32Z
2021-01-19T02:15:33Z,42.805,6.029,13.2984,4.59991,2470.133,2021-1-19T04:16:35Z
2021-01-19T02:18:36Z,42.805,6.029,13.2980,4.59991,2470.18,2021-1-19T04:19:38Z
2021-01-19T02:21:39Z,42.805,6.029,13.2983,4.59985,2470.18,2021-1-19T04:22:41Z
2021-01-19T02:24:42Z,42.805,6.029,13.2980,4.59989,2470.194,2021-1-19T04:25:44Z
2021-01-19T02:27:45Z,42.805,6.029,13.2985,4.59993,2470.156,2021-1-19T04:28:47Z
2021-01-19T02:30:49Z,42.805,6.029,13.2983,4.59987,2470.156,2021-1-19T04:31:50Z
2021-01-19T02:33:52Z,42.805,6.029,13.2986,4.59985,2470.171,2021-1-19T04:34:53Z
2021-01-19T02:36:55Z,42.805,6.029,13.2989,4.59986,2470.171,2021-1-19T04:37:57Z
2021-01-19T02:39:58Z,42.805,6.029,13.2983,4.59987,2470.24,2021-1-19T04:41:00Z
2021-01-19T02:43:01Z,42.805,6.029,13.2982,4.59986,2470.194,2021-1-19T04:44:03Z
2021-01-19T02:46:04Z,42.805,6.029,13.2982,4.59991,2470.18,2021-1-19T04:47:06Z
2021-01-19T02:49:07Z,42.805,6.029,13.2978,4.59987,2470.171,2021-1-19T04:50:09Z
2021-01-19T02:52:10Z,42.805,6.029,13.2983,4.59987,2470.156,2021-1-19T04:53:12Z
2021-01-19T02:55:14Z,42.805,6.029,13.2986,4.59985,2470.133,2021-1-19T04:56:15Z
2021-01-19T02:58:17Z,42.805,6.029,13.2982,4.59988,2470.119,2021-1-19T04:59:18Z
2021-01-19T03:01:20Z,42.805,6.029,13.2980,4.59985,2470.171,2021-1-19T05:02:22Z
2021-01-19T03:04:23Z,42.805,6.029,13.2983,4.59986,2470.156,2021-1-19T05:05:25Z
2021-01-19T03:07:26Z,42.805,6.029,13.2982,4.59987,2470.133,2021-1-19T05:08:28Z
2021-01-19T03:10:29Z,42.805,6.029,13.2986,4.59985,2470.133,2021-1-19T05:11:31Z
2021-01-19T03:13:32Z,42.805,6.029,13.2982,4.59986,2470.171,2021-1-19T05:14:34Z
2021-01-19T03:16:35Z,42.805,6.029,13.2977,4.59991,2470.171,2021-1-19T05:17:37Z
2021-01-19T03:19:39Z,42.805,6.029,13.2989,4.59987,2470.156,2021-1-19T05:20:40Z
2021-01-19T03:22:42Z,42.805,6.029,13.2982,4.59987,2470.133,2021-1-19T05:23:43Z
2021-01-19T03:25:45Z,42.805,6.029,13.2981,4.59991,2470.133,2021-1-19T05:26:46Z
2021-01-19T03:28:48Z,42.805,6.029,13.2982,4.59985,2470.147,2021-1-19T05:29:50Z
2021-01-19T03:31:51Z,42.805,6.029,13.2981,4.59986,2470.171,2021-1-19T05:32:53Z
2021-01-19T03:34:54Z,42.805,6.029,13.2985,4.59984,2470.124,2021-1-19T05:35:56Z
2021-01-19T03:37:57Z,42.805,6.029,13.2986,4.59985,2470.124,2021-1-19T05:38:59Z
2021-01-19T03:41:00Z,42.805,6.029,13.2983,4.59986,2470.11,2021-1-19T05:42:02Z
2021-01-19T03:44:04Z,42.805,6.029,13.2981,4.59987,2470.133,2021-1-19T05:45:05Z
2021-01-19T03:47:07Z,42.805,6.029,13.2982,4.59985,2470.147,2021-1-19T05:48:08Z
2021-01-19T03:50:10Z,42.805,6.029,13.2983,4.59985,2470.156,2021-1-19T05:51:11Z
2021-01-19T03:53:13Z,42.805,6.029,13.2980,4.59986,2470.11,2021-1-19T05:54:15Z
2021-01-19T03:56:16Z,42.805,6.029,13.2981,4.59990,2470.133,2021-1-19T05:57:18Z
2021-01-19T03:59:19Z,42.805,6.029,13.2981,4.59985,2470.11,2021-1-19T06:00:21Z
2021-01-19T04:02:22Z,42.805,6.029,13.2982,4.59989,2470.133,2021-1-19T06:03:24Z
2021-01-19T04:05:25Z,42.805,6.029,13.2979,4.59986,2470.124,2021-1-19T06:06:27Z
2021-01-19T04:08:28Z,42.805,6.029,13.2987,4.59991,2470.124,2021-1-19T06:09:30Z
2021-01-19T04:11:32Z,42.805,6.029,13.2982,4.59985,2470.133,2021-1-19T06:12:33Z
2021-01-19T04:14:35Z,42.805,6.029,13.2986,4.59991,2470.133,2021-1-19T06:15:36Z
2021-01-19T04:17:38Z,42.805,6.029,13.2981,4.59988,2470.147,2021-1-19T06:18:40Z
2021-01-19T04:20:41Z,42.805,6.029,13.2980,4.59986,2470.11,2021-1-19T06:21:43Z
2021-01-19T04:23:44Z,42.805,6.029,13.2980,4.59988,2470.156,2021-1-19T06:24:46Z
2021-01-19T04:26:47Z,42.805,6.029,13.2983,4.59986,2470.11,2021-1-19T06:27:49Z
2021-01-19T04:29:50Z,42.805,6.029,13.2983,4.59988,2470.133,2021-1-19T06:30:52Z
2021-01-19T04:32:54Z,42.805,6.029,13.2982,4.59988,2470.147,2021-1-19T06:33:55Z
2021-01-19T04:35:57Z,42.805,6.029,13.2982,4.59988,2470.087,2021-1-19T06:36:58Z
2021-01-19T04:39:00Z,42.805,6.029,13.2983,4.59986,2470.133,2021-1-19T06:40:01Z
2021-01-19T04:42:03Z,42.805,6.029,13.2979,4.59986,2470.124,2021-1-19T06:43:05Z
2021-01-19T04:45:06Z,42.805,6.029,13.2983,4.59992,2470.11,2021-1-19T06:46:08Z
2021-01-19T04:48:09Z,42.805,6.029,13.2984,4.59987,2470.133,2021-1-19T06:49:11Z
2021-01-19T04:51:12Z,42.805,6.029,13.2983,4.59987,2470.171,2021-1-19T06:52:14Z
2021-01-19T04:54:15Z,42.805,6.029,13.2984,4.59988,2470.1,2021-1-19T06:55:17Z
2021-01-19T04:57:18Z,42.805,6.029,13.2983,4.59988,2470.1,2021-1-19T06:58:20Z
2021-01-19T05:00:22Z,42.805,6.029,13.2980,4.59991,2470.147,2021-1-19T07:01:23Z
2021-01-19T05:03:25Z,42.805,6.029,13.2982,4.59987,2470.147,2021-1-19T07:04:26Z
2021-01-19T05:06:28Z,42.805,6.029,13.2985,4.59988,2470.156,2021-1-19T07:07:30Z
2021-01-19T05:09:31Z,42.805,6.029,13.2983,4.59986,2470.11,2021-1-19T07:10:33Z
2021-01-19T05:12:34Z,42.805,6.029,13.2984,4.59986,2470.124,2021-1-19T07:13:36Z
2021-01-19T05:15:37Z,42.805,6.029,13.2987,4.59987,2470.156,2021-1-19T07:16:39Z
2021-01-19T05:18:40Z,42.805,6.029,13.2979,4.59991,2470.087,2021-1-19T07:19:42Z
2021-01-19T05:21:43Z,42.805,6.029,13.2982,4.59986,2470.133,2021-1-19T07:22:45Z
2021-01-19T05:24:47Z,42.805,6.029,13.2981,4.59990,2470.133,2021-1-19T07:25:48Z
2021-01-19T05:27:50Z,42.805,6.029,13.2985,4.59987,2470.133,2021-1-19T07:28:51Z
2021-01-19T05:30:53Z,42.805,6.029,13.2982,4.59987,2470.147,2021-1-19T07:31:55Z
2021-01-19T05:33:56Z,42.805,6.029,13.2983,4.59986,2470.147,2021-1-19T07:34:58Z
2021-01-19T05:36:59Z,42.805,6.029,13.2985,4.59986,2470.147,2021-1-19T07:38:01Z
2021-01-19T05:40:02Z,42.805,6.029,13.2983,4.59986,2470.124,2021-1-19T07:41:04Z
2021-01-19T05:43:05Z,42.805,6.029,13.2984,4.59987,2470.133,2021-1-19T07:44:07Z
2021-01-19T05:46:08Z,42.805,6.029,13.2983,4.59989,2470.11,2021-1-19T07:47:10Z
2021-01-19T05:49:12Z,42.805,6.029,13.2985,4.59990,2470.11,2021-1-19T07:50:13Z
2021-01-19T05:52:15Z,42.805,6.029,13.2986,4.59989,2470.133,2021-1-19T07:53:16Z
2021-01-19T05:55:18Z,42.805,6.029,13.2983,4.59987,2470.087,2021-1-19T07:56:20Z
2021-01-19T05:58:21Z,42.805,6.029,13.2984,4.59988,2470.11,2021-1-19T07:59:23Z
2021-01-19T06:01:24Z,42.805,6.029,13.2984,4.59988,2470.11,2021-1-19T08:02:26Z
2021-01-19T06:04:27Z,42.805,6.029,13.2986,4.59990,2470.133,2021-1-19T08:05:29Z
2021-01-19T06:07:30Z,42.805,6.029,13.2983,4.59987,2470.087,2021-1-19T08:08:32Z
2021-01-19T06:10:33Z,42.805,6.029,13.2983,4.59987,2470.156,2021-1-19T08:11:35Z
2021-01-19T06:13:37Z,42.805,6.029,13.2983,4.59987,2470.11,2021-1-19T08:14:38Z
2021-01-19T06:16:40Z,42.805,6.029,13.2983,4.59987,2470.171,2021-1-19T08:17:41Z
2021-01-19T06:19:43Z,42.805,6.029,13.2986,4.59986,2470.171,2021-1-19T08:20:45Z
2021-01-19T06:22:46Z,42.805,6.029,13.2984,4.59988,2470.133,2021-1-19T08:23:48Z
2021-01-19T06:25:49Z,42.805,6.029,13.2985,4.59991,2470.133,2021-1-19T08:26:51Z
2021-01-19T06:28:52Z,42.805,6.029,13.2983,4.59988,2470.18,2021-1-19T08:29:54Z
2021-01-19T06:31:55Z,42.805,6.029,13.2983,4.59988,2470.156,2021-1-19T08:32:57Z
2021-01-19T06:34:58Z,42.805,6.029,13.2984,4.59988,2470.171,2021-1-19T08:36:00Z
2021-01-19T06:38:02Z,42.805,6.029,13.2983,4.59988,2470.133,2021-1-19T08:39:03Z
2021-01-19T06:41:05Z,42.805,6.029,13.2985,4.59989,2470.147,2021-1-19T08:42:06Z
2021-01-19T06:44:08Z,42.805,6.029,13.2985,4.59988,2470.133,2021-1-19T08:45:10Z
2021-01-19T06:47:11Z,42.805,6.029,13.2985,4.59987,2470.156,2021-1-19T08:48:13Z
2021-01-19T06:50:14Z,42.805,6.029,13.2984,4.59988,2470.124,2021-1-19T08:51:16Z
2021-01-19T06:53:17Z,42.805,6.029,13.2985,4.59991,2470.133,2021-1-19T08:54:19Z
2021-01-19T06:56:20Z,42.805,6.029,13.2987,4.59989,2470.133,2021-1-19T08:57:22Z
2021-01-19T06:59:23Z,42.805,6.029,13.2985,4.59989,2470.133,2021-1-19T09:00:25Z
2021-01-19T07:02:27Z,42.805,6.029,13.2981,4.59987,2470.156,2021-1-19T09:03:28Z
2021-01-19T07:05:30Z,42.805,6.029,13.2983,4.59991,2470.133,2021-1-19T09:06:31Z
2021-01-19T07:08:33Z,42.805,6.029,13.2983,4.59991,2470.147,2021-1-19T09:09:35Z
2021-01-19T07:11:36Z,42.805,6.029,13.2985,4.59991,2470.133,2021-1-19T09:12:38Z
2021-01-19T07:14:39Z,42.805,6.029,13.2986,4.59990,2470.133,2021-1-19T09:15:41Z
2021-01-19T07:17:42Z,42.805,6.029,13.2982,4.59988,2470.171,2021-1-19T09:18:44Z
2021-01-19T07:20:45Z,42.805,6.029,13.2983,4.59990,2470.156,2021-1-19T09:21:47Z
2021-01-19T07:23:48Z,42.805,6.029,13.2986,4.59990,2470.194,2021-1-19T09:24:50Z
2021-01-19T07:26:52Z,42.805,6.029,13.2985,4.59990,2470.156,2021-1-19T09:27:53Z
2021-01-19T07:29:55Z,42.805,6.029,13.2987,4.59988,2470.18,2021-1-19T09:30:56Z
2021-01-19T07:32:58Z,42.805,6.029,13.2986,4.59991,2470.194,2021-1-19T09:34:00Z
2021-01-19T07:36:01Z,42.805,6.029,13.2984,4.59991,2470.156,2021-1-19T09:37:03Z
2021-01-19T07:39:04Z,42.805,6.029,13.2982,4.59994,2470.203,2021-1-19T09:40:06Z
2021-01-19T07:42:07Z,42.805,6.029,13.2986,4.59990,2470.156,2021-1-19T09:43:09Z
2021-01-19T07:45:10Z,42.805,6.029,13.2987,4.59991,2470.194,2021-1-19T09:46:12Z
2021-01-19T07:48:13Z,42.805,6.029,13.2984,4.59995,2470.194,2021-1-19T09:49:15Z
2021-01-19T07:51:17Z,42.805,6.029,13.2985,4.59990,2470.18,2021-1-19T09:52:18Z
2021-01-19T07:54:20Z,42.805,6.029,13.2989,4.59991,2470.194,2021-1-19T09:55:21Z
2021-01-19T07:57:23Z,42.805,6.029,13.2984,4.59991,2470.18,2021-1-19T09:58:24Z
2021-01-19T08:00:26Z,42.805,6.029,13.2982,4.59991,2470.227,2021-1-19T10:01:28Z
2021-01-19T08:03:29Z,42.805,6.029,13.2982,4.59994,2470.217,2021-1-19T10:04:31Z
2021-01-19T08:06:32Z,42.805,6.029,13.2984,4.59991,2470.18,2021-1-19T10:07:34Z
2021-01-19T08:09:35Z,42.805,6.029,13.2983,4.59991,2470.203,2021-1-19T10:10:37Z
2021-01-19T08:12:38Z,42.805,6.029,13.2985,4.59990,2470.227,2021-1-19T10:13:40Z
2021-01-19T08:15:42Z,42.805,6.029,13.2986,4.59991,2470.194,2021-1-19T10:16:43Z
2021-01-19T08:18:45Z,42.805,6.029,13.2986,4.59990,2470.203,2021-1-19T10:19:46Z
2021-01-19T08:21:48Z,42.805,6.029,13.2986,4.59991,2470.227,2021-1-19T10:22:50Z
2021-01-19T08:24:51Z,42.805,6.029,13.2988,4.59991,2470.217,2021-1-19T10:25:53Z
2021-01-19T08:27:54Z,42.805,6.029,13.2987,4.59989,2470.203,2021-1-19T10:28:56Z
2021-01-19T08:30:57Z,42.805,6.029,13.2986,4.59992,2470.203,2021-1-19T10:31:59Z
2021-01-19T08:34:00Z,42.805,6.029,13.2985,4.59992,2470.203,2021-1-19T10:35:02Z
2021-01-19T08:37:03Z,42.805,6.029,13.2986,4.59990,2470.203,2021-1-19T10:38:05Z
2021-01-19T08:40:07Z,42.805,6.029,13.2982,4.59996,2470.227,2021-1-19T10:41:08Z
2021-01-19T08:43:10Z,42.805,6.029,13.2983,4.59997,2470.24,2021-1-19T10:44:11Z
2021-01-19T08:46:13Z,42.805,6.029,13.2985,4.59991,2470.227,2021-1-19T10:47:15Z
2021-01-19T08:49:16Z,42.805,6.029,13.2989,4.59991,2470.264,2021-1-19T10:50:18Z
2021-01-19T08:52:19Z,42.805,6.029,13.2984,4.59990,2470.227,2021-1-19T10:53:21Z
2021-01-19T08:55:22Z,42.805,6.029,13.2984,4.59991,2470.227,2021-1-19T10:56:24Z
2021-01-19T08:58:25Z,42.805,6.029,13.2986,4.59994,2470.203,2021-1-19T10:59:27Z
2021-01-19T09:01:28Z,42.805,6.029,13.2987,4.59991,2470.227,2021-1-19T11:02:30Z
2021-01-19T09:04:32Z,42.805,6.029,13.2983,4.59992,2470.264,2021-1-19T11:05:33Z
2021-01-19T09:07:35Z,42.805,6.029,13.2987,4.59991,2470.25,2021-1-19T11:08:36Z
2021-01-19T09:10:38Z,42.805,6.029,13.2987,4.59991,2470.24,2021-1-19T11:11:40Z
2021-01-19T09:13:41Z,42.805,6.029,13.2982,4.59992,2470.264,2021-1-19T11:14:43Z
2021-01-19T09:16:44Z,42.805,6.029,13.2987,4.59993,2470.264,2021-1-19T11:17:46Z
2021-01-19T09:19:47Z,42.805,6.029,13.2989,4.59991,2470.227,2021-1-19T11:20:49Z
2021-01-19T09:22:50Z,42.805,6.029,13.2988,4.59992,2470.273,2021-1-19T11:23:52Z
2021-01-19T09:25:53Z,42.805,6.029,13.2983,4.59991,2470.24,2021-1-19T11:26:55Z
2021-01-19T09:28:57Z,42.805,6.029,13.2983,4.59991,2470.273,2021-1-19T11:29:58Z
2021-01-19T09:32:00Z,42.805,6.029,13.2983,4.59991,2470.273,2021-1-19T11:33:01Z
2021-01-19T09:35:03Z,42.805,6.029,13.2982,4.59991,2470.25,2021-1-19T11:36:05Z
2021-01-19T09:38:06Z,42.805,6.029,13.2984,4.59993,2470.25,2021-1-19T11:39:08Z
2021-01-19T09:41:09Z,42.805,6.029,13.2982,4.59991,2470.287,2021-1-19T11:42:11Z
2021-01-19T09:44:12Z,42.805,6.029,13.2983,4.59990,2470.287,2021-1-19T11:45:14Z
2021-01-19T09:47:15Z,42.805,6.029,13.2986,4.59992,2470.31,2021-1-19T11:48:17Z
2021-01-19T09:50:19Z,42.805,6.029,13.2986,4.59991,2470.273,2021-1-19T11:51:20Z
2021-01-19T09:53:22Z,42.805,6.029,13.2984,4.59991,2470.273,2021-1-19T11:54:23Z
2021-01-19T09:56:25Z,42.805,6.029,13.2985,4.59989,2470.297,2021-1-19T11:57:27Z
2021-01-19T09:59:28Z,42.805,6.029,13.2986,4.59991,2470.25,2021-1-19T12:00:30Z
2021-01-19T10:02:31Z,42.805,6.029,13.2984,4.59991,2470.297,2021-1-19T12:03:33Z
2021-01-19T10:05:34Z,42.805,6.029,13.2986,4.59992,2470.273,2021-1-19T12:06:36Z
2021-01-19T10:08:37Z,42.805,6.029,13.2987,4.59991,2470.287,2021-1-19T12:09:39Z
2021-01-19T10:11:40Z,42.805,6.029,13.2991,4.59992,2470.31,2021-1-19T12:12:42Z
2021-01-19T10:14:44Z,42.805,6.029,13.2983,4.59993,2470.297,2021-1-19T12:15:45Z
2021-01-19T10:17:47Z,42.805,6.029,13.2990,4.59991,2470.32,2021-1-19T12:18:48Z
2021-01-19T10:20:50Z,42.805,6.029,13.2987,4.59991,2470.32,2021-1-19T12:21:51Z
2021-01-19T10:23:53Z,42.805,6.029,13.2986,4.59992,2470.31,2021-1-19T12:24:55Z
2021-01-19T10:26:56Z,42.805,6.029,13.2986,4.59992,2470.334,2021-1-19T12:27:58Z
2021-01-19T10:29:59Z,42.805,6.029,13.2987,4.59991,2470.334,2021-1-19T12:31:01Z
2021-01-19T10:33:02Z,42.805,6.029,13.2986,4.59992,2470.306,2021-1-19T12:34:04Z
2021-01-19T10:36:05Z,42.805,6.029,13.2984,4.59991,2470.32,2021-1-19T12:37:07Z
2021-01-19T10:39:09Z,42.805,6.029,13.2984,4.59991,2470.297,2021-1-19T12:40:10Z
2021-01-19T10:42:12Z,42.805,6.029,13.2989,4.59990,2470.283,2021-1-19T12:43:13Z
2021-01-19T10:45:15Z,42.805,6.029,13.2988,4.59993,2470.297,2021-1-19T12:46:17Z
2021-01-19T10:48:18Z,42.805,6.029,13.2986,4.59993,2470.297,2021-1-19T12:49:20Z
2021-01-19T10:51:21Z,42.805,6.029,13.2983,4.59992,2470.32,2021-1-19T12:52:23Z
2021-01-19T10:54:24Z,42.805,6.029,13.2988,4.59995,2470.31,2021-1-19T12:55:26Z
2021-01-19T10:57:27Z,42.805,6.029,13.2985,4.59991,2470.32,2021-1-19T12:58:29Z
2021-01-19T11:00:30Z,42.805,6.029,13.2986,4.59991,2470.334,2021-1-19T13:01:32Z
2021-01-19T11:03:34Z,42.805,6.029,13.2990,4.59991,2470.343,2021-1-19T13:04:35Z
2021-01-19T11:06:37Z,42.805,6.029,13.2989,4.59993,2470.32,2021-1-19T13:07:38Z
2021-01-19T11:09:40Z,42.805,6.029,13.2986,4.59992,2470.283,2021-1-19T13:10:42Z
2021-01-19T11:12:43Z,42.805,6.029,13.2990,4.59994,2470.297,2021-1-19T13:13:45Z
2021-01-19T11:15:46Z,42.805,6.029,13.2986,4.59992,2470.31,2021-1-19T13:16:48Z
2021-01-19T11:18:49Z,42.805,6.029,13.2984,4.59992,2470.31,2021-1-19T13:19:51Z
2021-01-19T11:21:52Z,42.805,6.029,13.2991,4.59992,2470.297,2021-1-19T13:22:54Z
2021-01-19T11:24:56Z,42.805,6.029,13.2983,4.59993,2470.297,2021-1-19T13:25:57Z
2021-01-19T11:27:59Z,42.805,6.029,13.2983,4.59994,2470.297,2021-1-19T13:29:00Z
2021-01-19T11:31:02Z,42.805,6.029,13.2989,4.59991,2470.334,2021-1-19T13:32:03Z
2021-01-19T11:34:05Z,42.805,6.029,13.2987,4.59991,2470.334,2021-1-19T13:35:07Z
2021-01-19T11:37:08Z,42.805,6.029,13.2992,4.59992,2470.297,2021-1-19T13:38:10Z
2021-01-19T11:40:11Z,42.805,6.029,13.2989,4.59991,2470.31,2021-1-19T13:41:13Z
2021-01-19T11:43:14Z,42.805,6.029,13.2988,4.59993,2470.343,2021-1-19T13:44:16Z
2021-01-19T11:46:17Z,42.805,6.029,13.2990,4.59993,2470.297,2021-1-19T13:47:19Z
2021-01-19T11:49:21Z,42.805,6.029,13.2990,4.59993,2470.32,2021-1-19T13:50:22Z
2021-01-19T11:52:24Z,42.805,6.029,13.2987,4.59992,2470.297,2021-1-19T13:53:25Z
2021-01-19T11:55:27Z,42.805,6.029,13.2990,4.59996,2470.31,2021-1-19T13:56:28Z
2021-01-19T11:58:30Z,42.805,6.029,13.2987,4.59993,2470.297,2021-1-19T13:59:32Z
2021-01-19T12:01:33Z,42.805,6.029,13.2990,4.59995,2470.32,2021-1-19T14:02:35Z
2021-01-19T12:04:36Z,42.805,6.029,13.2991,4.59994,2470.32,2021-1-19T14:05:38Z
2021-01-19T12:07:39Z,42.805,6.029,13.2991,4.59993,2470.287,2021-1-19T14:08:41Z
2021-01-19T12:10:42Z,42.805,6.029,13.2990,4.59993,2470.297,2021-1-19T14:11:44Z
2021-01-19T12:13:46Z,42.805,6.029,13.2989,4.59993,2470.273,2021-1-19T14:14:47Z
2021-01-19T12:16:49Z,42.805,6.029,13.2990,4.59994,2470.297,2021-1-19T14:17:50Z
2021-01-19T12:19:52Z,42.805,6.029,13.2991,4.59994,2470.334,2021-1-19T14:20:54Z
2021-01-19T12:22:55Z,42.805,6.029,13.2986,4.59995,2470.297,2021-1-19T14:23:57Z
2021-01-19T12:25:58Z,42.805,6.029,13.2991,4.59994,2470.334,2021-1-19T14:27:00Z
2021-01-19T12:29:01Z,42.805,6.029,13.2988,4.59994,2470.334,2021-1-19T14:30:03Z
2021-01-19T12:32:04Z,42.805,6.029,13.2990,4.59994,2470.287,2021-1-19T14:33:06Z
2021-01-19T12:35:07Z,42.805,6.029,13.2991,4.59994,2470.273,2021-1-19T14:36:09Z
2021-01-19T12:38:11Z,42.805,6.029,13.2991,4.59994,2470.297,2021-1-19T14:39:12Z
2021-01-19T12:41:14Z,42.805,6.029,13.2989,4.59993,2470.297,2021-1-19T14:42:15Z
2021-01-19T12:44:17Z,42.805,6.029,13.2991,4.59994,2470.334,2021-1-19T14:45:18Z
2021-01-19T12:47:20Z,42.805,6.029,13.2987,4.59993,2470.297,2021-1-19T14:48:22Z
2021-01-19T12:50:23Z,42.805,6.029,13.2990,4.59995,2470.297,2021-1-19T14:51:25Z
2021-01-19T12:53:26Z,42.805,6.029,13.2987,4.59996,2470.31,2021-1-19T14:54:28Z
2021-01-19T12:56:29Z,42.805,6.029,13.2990,4.59996,2470.297,2021-1-19T14:57:31Z
2021-01-19T12:59:32Z,42.805,6.029,13.2993,4.59996,2470.273,2021-1-19T15:00:34Z
2021-01-19T13:02:36Z,42.805,6.029,13.2989,4.59995,2470.334,2021-1-19T15:03:37Z
2021-01-19T13:05:39Z,42.805,6.029,13.2985,4.59996,2470.273,2021-1-19T15:06:40Z
2021-01-19T13:08:42Z,42.805,6.029,13.2990,4.59994,2470.273,2021-1-19T15:09:44Z
2021-01-19T13:11:45Z,42.805,6.029,13.2990,4.59995,2470.273,2021-1-19T15:12:47Z
2021-01-19T13:14:48Z,42.805,6.029,13.2991,4.59995,2470.297,2021-1-19T15:15:50Z
2021-01-19T13:17:51Z,42.805,6.029,13.2990,4.59995,2470.32,2021-1-19T15:18:53Z
2021-01-19T13:20:54Z,42.805,6.029,13.2990,4.59995,2470.32,2021-1-19T15:21:56Z
2021-01-19T13:23:57Z,42.805,6.029,13.2990,4.59994,2470.297,2021-1-19T15:24:59Z
2021-01-19T13:27:01Z,42.805,6.029,13.2991,4.59995,2470.264,2021-1-19T15:28:02Z
2021-01-19T13:30:04Z,42.805,6.029,13.2989,4.59995,2470.264,2021-1-19T15:31:05Z
2021-01-19T13:33:07Z,42.805,6.029,13.2990,4.59993,2470.334,2021-1-19T15:34:09Z
2021-01-19T13:36:10Z,42.805,6.029,13.2993,4.59995,2470.25,2021-1-19T15:37:12Z
2021-01-19T13:39:13Z,42.805,6.029,13.2990,4.59994,2470.273,2021-1-19T15:40:15Z
2021-01-19T13:42:16Z,42.805,6.029,13.2986,4.59995,2470.273,2021-1-19T15:43:18Z
2021-01-19T13:45:19Z,42.805,6.029,13.2991,4.59994,2470.264,2021-1-19T15:46:21Z
2021-01-19T13:48:22Z,42.805,6.029,13.2990,4.59994,2470.287,2021-1-19T15:49:24Z
2021-01-19T13:51:26Z,42.805,6.029,13.2990,4.59995,2470.287,2021-1-19T15:52:27Z
2021-01-19T13:54:29Z,42.805,6.029,13.2990,4.59994,2470.273,2021-1-19T15:55:30Z
2021-01-19T13:57:32Z,42.805,6.029,13.2988,4.59994,2470.273,2021-1-19T15:58:34Z
2021-01-19T14:00:35Z,42.805,6.029,13.2989,4.59993,2470.31,2021-1-19T16:01:37Z
2021-01-19T14:03:38Z,42.805,6.029,13.2990,4.59995,2470.25,2021-1-19T16:04:40Z
2021-01-19T14:06:41Z,42.805,6.029,13.2989,4.59994,2470.273,2021-1-19T16:07:43Z
2021-01-19T14:09:44Z,42.805,6.029,13.2992,4.59996,2470.25,2021-1-19T16:10:46Z
2021-01-19T14:12:48Z,42.805,6.029,13.2992,4.59995,2470.287,2021-1-19T16:13:49Z
2021-01-19T14:15:51Z,42.805,6.029,13.2991,4.59995,2470.31,2021-1-19T16:16:52Z
2021-01-19T14:18:54Z,42.805,6.029,13.2992,4.59996,2470.287,2021-1-19T16:19:55Z
2021-01-19T14:21:57Z,42.805,6.029,13.2991,4.59994,2470.25,2021-1-19T16:22:59Z
2021-01-19T14:25:00Z,42.805,6.029,13.2990,4.59996,2470.25,2021-1-19T16:26:02Z
2021-01-19T14:28:03Z,42.805,6.029,13.2991,4.59994,2470.273,2021-1-19T16:29:05Z
2021-01-19T14:31:06Z,42.805,6.029,13.2989,4.59994,2470.25,2021-1-19T16:32:08Z
2021-01-19T14:34:09Z,42.805,6.029,13.2993,4.59996,2470.287,2021-1-19T16:35:11Z
2021-01-19T14:37:12Z,42.805,6.029,13.2986,4.59995,2470.31,2021-1-19T16:38:14Z
2021-01-19T14:40:16Z,42.805,6.029,13.2990,4.59996,2470.287,2021-1-19T16:41:17Z
2021-01-19T14:43:19Z,42.805,6.029,13.2989,4.59996,2470.227,2021-1-19T16:44:20Z
2021-01-19T14:46:22Z,42.805,6.029,13.2986,4.59993,2470.264,2021-1-19T16:47:24Z
2021-01-19T14:49:25Z,42.805,6.029,13.2988,4.59995,2470.24,2021-1-19T16:50:27Z
2021-01-19T14:52:28Z,42.805,6.029,13.2987,4.59993,2470.25,2021-1-19T16:53:30Z
2021-01-19T14:55:31Z,42.805,6.029,13.2989,4.59994,2470.24,2021-1-19T16:56:33Z
2021-01-19T14:58:34Z,42.805,6.029,13.2991,4.59995,2470.24,2021-1-19T16:59:36Z
2021-01-19T15:01:38Z,42.805,6.029,13.2991,4.59994,2470.25,2021-1-19T17:02:39Z
2021-01-19T15:04:41Z,42.805,6.029,13.2991,4.59995,2470.25,2021-1-19T17:05:42Z
2021-01-19T15:07:44Z,42.805,6.029,13.2990,4.59996,2470.25,2021-1-19T17:08:45Z
2021-01-19T15:10:47Z,42.805,6.029,13.2990,4.59994,2470.227,2021-1-19T17:11:49Z